Zurück zum Katalog

STARLINK-32859

AktivKommunikationVLEO
NORAD 62861·PAYLOAD·🇺🇸 United States

Gestartet Feb 1, 2025 von Vandenberg Space Force Base

Loading…

Nächste Überflüge (nächste 24 Stunden)

TLE

AktuellSource: CelesTrak SupGP

Epoche: Sep 15, 2026, 02:58 UTC

1 62861C 25022H   26258.12409722  .00065236  00000+0  19251-2 0  2583
2 62861  53.1596 326.9638 0001259  88.5314 216.1555 15.34395711    12

Verfolge STARLINK-32859 in Echtzeit mit AllMySat

Download on the App Store